,,,PA_Meas_PMT16A,,PR_Meas_QMR101_102,,RH_Meas_QMH101,,SR_Meas_QMS101,,TA_Meas_QMH101,,GenWind,,GenWind,
date,time,status,PA,status,PR,status,RH,status,SR,status,TA,status,DirAvg,status,SpdAvg,
2010-10-27, 00:00:04,VALID,1002.69,VALID,0,VALID,86.214,VALID,0,VALID,26.5076,VALID,8,VALID,1.90234,
2010-10-27, 00:01:04,VALID,1002.7,VALID,0,VALID,86.2979,VALID,0,VALID,26.4667,VALID,21,VALID,1.47695,
2010-10-27, 00:02:04,VALID,1002.72,VALID,0,VALID,86.5725,VALID,0.100563,VALID,26.4472,VALID,27,VALID,1.36758,
2010-10-27, 00:03:04,VALID,1002.71,VALID,0,VALID,87.0379,VALID,0,VALID,26.4082,VALID,9,VALID,0.66875,
2010-10-27, 00:04:04,VALID,1002.7,VALID,0,VALID,87.1828,VALID,0,VALID,26.3693,VALID,24,VALID,1.17344,
2010-10-27, 00:05:04,VALID,1002.69,VALID,0,VALID,86.7404,VALID,0,VALID,26.4102,VALID,15,VALID,1.84063,
2010-10-27, 00:06:04,VALID,1002.69,VALID,0,VALID,86.2979,VALID,0,VALID,26.4687,VALID,17,VALID,2.08672,
2010-10-27, 00:07:04,VALID,1002.64,VALID,0,VALID,85.9317,VALID,0,VALID,26.5661,VALID,12,VALID,1.83711,
2010-10-27, 00:08:04,VALID,1002.69,VALID,0,VALID,85.9851,VALID,0,VALID,26.5641,VALID,8,VALID,1.05313,
2010-10-27, 00:09:04,VALID,1002.7,VALID,0,VALID,86.214,VALID,0,VALID,26.5056,VALID,9,VALID,1.54805,
2010-10-27, 00:10:04,VALID,1002.72,VALID,0,VALID,86.5268,VALID,0,VALID,26.5056,VALID,20,VALID,1.22656,
2010-10-27, 00:11:04,VALID,1002.71,VALID,0,VALID,86.4962,VALID,0,VALID,26.4841,VALID,38,VALID,1.20859,
2010-10-27, 00:12:04,VALID,1002.73,VALID,0,VALID,86.5573,VALID,0,VALID,26.5251,VALID,12,VALID,1.35742,
2010-10-27, 00:13:04,VALID,1002.69,VALID,0,VALID,86.6717,VALID,0.100563,VALID,26.5251,VALID,31,VALID,1.25859,
2010-10-27, 00:14:04,VALID,1002.65,VALID,0,VALID,86.4886,VALID,0,VALID,26.5056,VALID,6,VALID,0.916406,
2010-10-27, 00:15:04,VALID,1002.63,VALID,0,VALID,86.687,VALID,0,VALID,26.5291,VALID,30,VALID,1.08203,
2010-10-27, 00:16:04,VALID,1002.63,VALID,0,VALID,86.7556,VALID,0,VALID,26.4687,VALID,10,VALID,1.57227,
2010-10-27, 00:17:04,VALID,1002.63,VALID,0,VALID,86.687,VALID,0,VALID,26.5076,VALID,356,VALID,1.74023,
2010-10-27, 00:18:04,VALID,1002.68,VALID,0,VALID,86.6717,VALID,0,VALID,26.5466,VALID,48,VALID,1.11172,
2010-10-27, 00:19:04,VALID,1002.69,VALID,0,VALID,86.6412,VALID,0,VALID,26.5271,VALID,42,VALID,0.89375,
2010-10-27, 00:20:04,VALID,1002.69,VALID,0,VALID,86.542,VALID,0,VALID,26.5466,VALID,9,VALID,1.49766,
2010-10-27, 00:21:04,VALID,1002.69,VALID,0,VALID,86.4352,VALID,0,VALID,26.607,VALID,16,VALID,1.12734,
2010-10-27, 00:22:04,VALID,1002.7,VALID,0,VALID,86.275,VALID,0,VALID,26.605,VALID,64,VALID,1.23008,
2010-10-27, 00:23:04,VALID,1002.72,VALID,0,VALID,86.0614,VALID,0,VALID,26.685,VALID,21,VALID,1.53828,
2010-10-27, 00:24:04,VALID,1002.73,VALID,0,VALID,85.8478,VALID,0,VALID,26.7024,VALID,25,VALID,1.53711,
2010-10-27, 00:25:04,VALID,1002.74,VALID,0,VALID,85.9012,VALID,0,VALID,26.683,VALID,62,VALID,1.38516,
2010-10-27, 00:26:04,VALID,1002.74,VALID,0,VALID,85.9165,VALID,0,VALID,26.683,VALID,24,VALID,1.13516,
2010-10-27, 00:27:04,VALID,1002.73,VALID,0,VALID,86.1148,VALID,0,VALID,26.644,VALID,31,VALID,1.11289,
2010-10-27, 00:28:04,VALID,1002.71,VALID,0,VALID,86.069,VALID,0,VALID,26.6635,VALID,22,VALID,1.4,
2010-10-27, 00:29:04,VALID,1002.67,VALID,0,VALID,86.0843,VALID,0,VALID,26.644,VALID,28,VALID,1.35781,
2010-10-27, 00:30:04,VALID,1002.75,VALID,0,VALID,86.2521,VALID,0,VALID,26.642,VALID,20,VALID,1.25742,
2010-10-27, 00:31:04,VALID,1002.8,VALID,0,VALID,86.4276,VALID,0.100563,VALID,26.603,VALID,15,VALID,1.25859,
2010-10-27, 00:32:04,VALID,1002.81,VALID,0,VALID,86.6259,VALID,0,VALID,26.5641,VALID,27,VALID,1.11914,
2010-10-27, 00:33:04,VALID,1002.82,VALID,0,VALID,86.5878,VALID,0,VALID,26.5835,VALID,14,VALID,0.967969,
2010-10-27, 00:34:04,VALID,1002.86,VALID,0,VALID,86.8853,VALID,0.100563,VALID,26.5835,VALID,34,VALID,0.639844,
2010-10-27, 00:35:04,VALID,1002.85,VALID,0,VALID,86.8624,VALID,0,VALID,26.5251,VALID,356,VALID,0.813672,
2010-10-27, 00:36:04,VALID,1002.88,VALID,0,VALID,87.0074,VALID,0,VALID,26.5251,VALID,10,VALID,1.16836,
2010-10-27, 00:37:04,VALID,1002.88,VALID,0,VALID,87.1218,VALID,0,VALID,26.5251,VALID,18,VALID,0.872266,
2010-10-27, 00:38:04,VALID,1002.89,VALID,0,VALID,86.9921,VALID,0,VALID,26.5466,VALID,47,VALID,0.728516,
2010-10-27, 00:39:04,VALID,1002.91,VALID,0,VALID,86.6336,VALID,0,VALID,26.5855,VALID,8,VALID,1.03437,
2010-10-27, 00:40:04,VALID,1002.89,VALID,0,VALID,86.4886,VALID,0,VALID,26.6245,VALID,14,VALID,1.57305,
2010-10-27, 00:41:04,VALID,1002.89,VALID,0,VALID,86.5496,VALID,0,VALID,26.6225,VALID,16,VALID,1.29883,
2010-10-27, 00:42:04,VALID,1002.92,VALID,0,VALID,86.5878,VALID,0,VALID,26.6225,VALID,26,VALID,0.725,
2010-10-27, 00:43:04,VALID,1002.92,VALID,0,VALID,86.4123,VALID,0.100563,VALID,26.6225,VALID,347,VALID,1.6125,
2010-10-27, 00:44:04,VALID,1002.94,VALID,0,VALID,86.2903,VALID,0.100563,VALID,26.7024,VALID,29,VALID,1.19805,
2010-10-27, 00:45:04,VALID,1002.94,VALID,0,VALID,86.275,VALID,0,VALID,26.683,VALID,31,VALID,0.308984,
2010-10-27, 00:46:04,VALID,1002.93,VALID,0,VALID,86.2445,VALID,0,VALID,26.7045,VALID,27,VALID,2.24492,
2010-10-27, 00:47:04,VALID,1002.93,VALID,0,VALID,85.8249,VALID,0,VALID,26.7414,VALID,14,VALID,1.57383,
2010-10-27, 00:48:04,VALID,1002.94,VALID,0,VALID,85.7944,VALID,0,VALID,26.7609,VALID,2,VALID,0.694141,
2010-10-27, 00:49:04,VALID,1002.98,VALID,0,VALID,85.9393,VALID,0,VALID,26.7629,VALID,15,VALID,1.3418,
2010-10-27, 00:50:04,VALID,1003.01,VALID,0,VALID,85.8096,VALID,0,VALID,26.7609,VALID,21,VALID,0.936719,
2010-10-27, 00:51:04,VALID,1003.06,VALID,0,VALID,85.741,VALID,0,VALID,26.7629,VALID,29,VALID,1.48281,
2010-10-27, 00:52:04,VALID,1003.11,VALID,0,VALID,85.596,VALID,0,VALID,26.8019,VALID,51,VALID,0.785547,
2010-10-27, 00:53:04,VALID,1003.12,VALID,0,VALID,85.68,VALID,0,VALID,26.7824,VALID,35,VALID,0.5,
2010-10-27, 00:54:04,VALID,1003.1,VALID,0,VALID,85.6952,VALID,0,VALID,26.7414,VALID,13,VALID,1.17578,
2010-10-27, 00:55:04,VALID,1003.12,VALID,0,VALID,86.0461,VALID,0,VALID,26.7219,VALID,29,VALID,0.6,
2010-10-27, 00:56:04,VALID,1003.17,VALID,0,VALID,86.2216,VALID,0,VALID,26.7045,VALID,55,VALID,0.770703,
2010-10-27, 00:57:04,VALID,1003.18,VALID,0,VALID,86.7175,VALID,0,VALID,26.644,VALID,18,VALID,0.764844,
2010-10-27, 00:58:04,VALID,1003.16,VALID,0,VALID,86.748,VALID,0,VALID,26.644,VALID,93,VALID,0.621094,
2010-10-27, 00:59:04,VALID,1003.16,VALID,0,VALID,86.5725,VALID,0,VALID,26.646,VALID,357,VALID,1.1625,
2010-10-27, 01:00:04,VALID,1003.2,VALID,0,VALID,86.809,VALID,0,VALID,26.644,VALID,45,VALID,0.446875,
2010-10-27, 01:01:04,VALID,1003.17,VALID,0,VALID,86.954,VALID,0,VALID,26.644,VALID,81,VALID,0.591406,
2010-10-27, 01:02:04,VALID,1003.16,VALID,0,VALID,87.3202,VALID,0,VALID,26.5661,VALID,18,VALID,0.712109,
2010-10-27, 01:03:04,VALID,1003.16,VALID,0,VALID,87.5795,VALID,0,VALID,26.5076,VALID,54,VALID,0.580078,
2010-10-27, 01:04:04,VALID,1003.19,VALID,0,VALID,87.6024,VALID,0,VALID,26.4881,VALID,32,VALID,0.832812,
2010-10-27, 01:05:04,VALID,1003.2,VALID,0,VALID,87.6863,VALID,0,VALID,26.4707,VALID,51,VALID,0.310937,
2010-10-27, 01:06:04,VALID,1003.22,VALID,0,VALID,87.8313,VALID,0,VALID,26.4297,VALID,63,VALID,0.610937,
2010-10-27, 01:07:04,VALID,1003.28,VALID,0,VALID,88.0525,VALID,0,VALID,26.4317,VALID,70,VALID,0.820703,
2010-10-27, 01:08:04,VALID,1003.27,VALID,0,VALID,88.2585,VALID,0,VALID,26.3713,VALID,37,VALID,0.847266,
2010-10-27, 01:09:04,VALID,1003.3,VALID,0,VALID,88.4798,VALID,0,VALID,26.3518,VALID,59,VALID,0.967969,
2010-10-27, 01:10:04,VALID,1003.27,VALID,0,VALID,88.7086,VALID,0,VALID,26.3323,VALID,9,VALID,1.11836,
2010-10-27, 01:11:04,VALID,1003.26,VALID,0,VALID,88.7925,VALID,0,VALID,26.3128,VALID,93,VALID,0.579687,
2010-10-27, 01:12:04,VALID,1003.27,VALID,0,VALID,88.9222,VALID,0,VALID,26.3108,VALID,58,VALID,0.728906,
2010-10-27, 01:13:04,VALID,1003.32,VALID,0,VALID,89.0748,VALID,0,VALID,26.2933,VALID,6,VALID,0.499219,
2010-10-27, 01:14:04,VALID,1003.35,VALID,0,VALID,89.2426,VALID,0,VALID,26.2544,VALID,84,VALID,0.810938,
2010-10-27, 01:15:04,VALID,1003.36,VALID,0,VALID,89.5554,VALID,0,VALID,26.2154,VALID,32,VALID,0.480469,
2010-10-27, 01:16:04,VALID,1003.35,VALID,0,VALID,89.7309,VALID,0,VALID,26.2134,VALID,47,VALID,1.30273,
2010-10-27, 01:17:04,VALID,1003.38,VALID,0,VALID,89.7461,VALID,0.100563,VALID,26.2349,VALID,63,VALID,0.580469,
2010-10-27, 01:18:04,VALID,1003.38,VALID,0,VALID,89.5631,VALID,0,VALID,26.2349,VALID,98,VALID,0.854688,
2010-10-27, 01:19:04,VALID,1003.4,VALID,0,VALID,89.6699,VALID,0.100563,VALID,26.2329,VALID,88,VALID,0.494922,
2010-10-27, 01:20:04,VALID,1003.39,VALID,0,VALID,89.8682,VALID,0,VALID,26.2349,VALID,88,VALID,0.260938,
2010-10-27, 01:21:04,VALID,1003.38,VALID,0,VALID,89.7614,VALID,0,VALID,26.2154,VALID,10,VALID,0.28125,
2010-10-27, 01:22:04,VALID,1003.36,VALID,0,VALID,89.9826,VALID,0,VALID,26.2154,VALID,10,VALID,0.0800781,
2010-10-27, 01:23:04,VALID,1003.35,VALID,0,VALID,89.8377,VALID,0.100563,VALID,26.1745,VALID,10,VALID,0.154297,
2010-10-27, 01:24:04,VALID,1003.33,VALID,0,VALID,89.9292,VALID,0.100563,VALID,26.1765,VALID,10,VALID,0.358984,
2010-10-27, 01:25:04,VALID,1003.32,VALID,0,VALID,90.0818,VALID,0,VALID,26.1745,VALID,10,VALID,0.000390625,
2010-10-27, 01:26:04,VALID,1003.38,VALID,0,VALID,89.6393,VALID,0,VALID,26.1765,VALID,10,VALID,0.428125,
2010-10-27, 01:27:04,VALID,1003.41,VALID,0,VALID,89.9216,VALID,0.100563,VALID,26.2154,VALID,10,VALID,0.348828,
2010-10-27, 01:28:04,VALID,1003.47,VALID,0,VALID,89.8835,VALID,0.100563,VALID,26.2154,VALID,146,VALID,0.821875,
2010-10-27, 01:29:04,VALID,1003.56,VALID,0,VALID,90.2573,VALID,0.100563,VALID,26.2349,VALID,146,VALID,0.681641,
2010-10-27, 01:30:04,VALID,1003.63,VALID,0,VALID,89.8758,VALID,0.100563,VALID,26.2349,VALID,186,VALID,1.29961,
2010-10-27, 01:31:04,VALID,1003.72,VALID,0,VALID,89.8606,VALID,0.100563,VALID,26.2329,VALID,176,VALID,1.75195,
2010-10-27, 01:32:04,VALID,1003.86,VALID,0,VALID,90.3488,VALID,0.100563,VALID,26.2524,VALID,175,VALID,1.61875,
2010-10-27, 01:33:04,VALID,1004.03,VALID,0,VALID,89.6546,VALID,0.100563,VALID,26.194,VALID,145,VALID,2.42773,
2010-10-27, 01:34:04,VALID,1004,VALID,0,VALID,87.8313,VALID,0.100563,VALID,25.9622,VALID,129,VALID,5.13359,
2010-10-27, 01:35:04,VALID,1004.15,VALID,0.5,VALID,86.9387,VALID,0.201126,VALID,25.3779,VALID,99,VALID,5.18945,
2010-10-27, 01:36:04,VALID,1004.02,VALID,1,VALID,90.4556,VALID,0.201126,VALID,24.6556,VALID,114,VALID,4.63789,
2010-10-27, 01:37:04,VALID,1004.07,VALID,1,VALID,92.8053,VALID,0.201126,VALID,24.1105,VALID,130,VALID,3.62266,
2010-10-27, 01:38:04,VALID,1004.01,VALID,0.5,VALID,94.0946,VALID,0.301689,VALID,23.7017,VALID,123,VALID,3.49766,
2010-10-27, 01:39:04,VALID,1004.02,VALID,0.5,VALID,98.5651,VALID,0.402252,VALID,23.4293,VALID,126,VALID,4.43359,
2010-10-27, 01:40:04,VALID,1004.07,VALID,1,INVALID,122.482,VALID,0.603378,VALID,23.2364,VALID,122,VALID,3.23203,
2010-10-27, 01:41:04,VALID,1004.07,VALID,0,INVALID,161.862,VALID,0.804504,VALID,23.0984,VALID,120,VALID,2.57891,
2010-10-27, 01:42:04,VALID,1004.05,VALID,0,INVALID,163.723,VALID,1.00563,VALID,23.0206,VALID,108,VALID,1.55234,
2010-10-27, 01:43:04,VALID,1004.14,VALID,0.5,INVALID,163.754,VALID,1.20676,VALID,22.9622,VALID,130,VALID,1.85352,
2010-10-27, 01:44:04,VALID,1004.2,VALID,0,INVALID,163.739,VALID,1.50844,VALID,22.9428,VALID,115,VALID,1.275,
2010-10-27, 01:45:04,VALID,1004.17,VALID,0.5,INVALID,163.731,VALID,1.81013,VALID,22.9817,VALID,32,VALID,1.58359,
2010-10-27, 01:46:04,VALID,1004.15,VALID,0.5,INVALID,163.731,VALID,2.51407,VALID,22.964,VALID,105,VALID,0.771484,
2010-10-27, 01:47:04,VALID,1004.08,VALID,0,INVALID,163.762,VALID,3.92195,VALID,22.9834,VALID,25,VALID,1.53633,
2010-10-27, 01:48:04,VALID,1004.13,VALID,0.5,INVALID,163.754,VALID,5.93321,VALID,23.0029,VALID,76,VALID,2.31797,
2010-10-27, 01:49:04,VALID,1004.14,VALID,0,INVALID,163.769,VALID,7.44166,VALID,23.063,VALID,111,VALID,2.07031,
2010-10-27, 01:50:04,VALID,1004.12,VALID,0.5,INVALID,163.716,VALID,8.64841,VALID,23.0418,VALID,72,VALID,0.808984,
2010-10-27, 01:51:04,VALID,1004.12,VALID,0,INVALID,163.739,VALID,9.75461,VALID,23.0224,VALID,77,VALID,2.17539,
2010-10-27, 01:52:04,VALID,1004.14,VALID,0,INVALID,163.739,VALID,10.5591,VALID,23.0012,VALID,98,VALID,1.26914,
2010-10-27, 01:53:04,VALID,1004.14,VALID,0.5,INVALID,163.746,VALID,11.3636,VALID,23.0012,VALID,95,VALID,0.727344,
2010-10-27, 01:54:04,VALID,1004.16,VALID,0,INVALID,163.746,VALID,11.8664,VALID,23.0029,VALID,78,VALID,1.23516,
2010-10-27, 01:55:04,VALID,1004.22,VALID,0,INVALID,163.777,VALID,12.0676,VALID,23.0029,VALID,82,VALID,0.450391,
2010-10-27, 01:56:04,VALID,1004.29,VALID,0,INVALID,163.746,VALID,12.4698,VALID,22.9834,VALID,55,VALID,0.542969,
2010-10-27, 01:57:04,VALID,1004.28,VALID,0,INVALID,163.746,VALID,13.1737,VALID,22.9834,VALID,106,VALID,0.694922,
2010-10-27, 01:58:04,VALID,1004.18,VALID,0,INVALID,163.723,VALID,14.7828,VALID,22.9834,VALID,43,VALID,0.517187,
2010-10-27, 01:59:04,VALID,1004.14,VALID,0,INVALID,163.723,VALID,15.9895,VALID,23.0206,VALID,93,VALID,2.21094,
2010-10-27, 02:00:04,VALID,1004.08,VALID,0,INVALID,163.731,VALID,16.9951,VALID,23.079,VALID,14,VALID,1.05195,
2010-10-27, 02:01:04,VALID,1004.06,VALID,0,INVALID,163.693,VALID,18.1013,VALID,23.1197,VALID,21,VALID,0.491797,
2010-10-27, 02:02:04,VALID,1004.11,VALID,0,INVALID,163.723,VALID,18.7047,VALID,23.1586,VALID,80,VALID,0.298828,
2010-10-27, 02:03:04,VALID,1004.1,VALID,0,INVALID,163.731,VALID,18.6041,VALID,23.1391,VALID,80,VALID,0.542578,
2010-10-27, 02:04:04,VALID,1004.12,VALID,0,INVALID,163.731,VALID,18.5036,VALID,23.1798,VALID,69,VALID,0.692578,
2010-10-27, 02:05:04,VALID,1004.14,VALID,0,INVALID,163.701,VALID,19.0064,VALID,23.0224,VALID,69,VALID,2.08633,
2010-10-27, 02:06:04,VALID,1004.17,VALID,0,INVALID,163.716,VALID,19.8109,VALID,23.0029,VALID,67,VALID,1.13906,
2010-10-27, 02:07:04,VALID,1004.04,VALID,0,INVALID,163.731,VALID,20.8165,VALID,22.9622,VALID,6,VALID,1.23633,
2010-10-27, 02:08:04,VALID,1004.03,VALID,0,INVALID,163.739,VALID,21.621,VALID,22.9834,VALID,62,VALID,0.713672,
2010-10-27, 02:09:04,VALID,1004.06,VALID,0,INVALID,163.754,VALID,22.5261,VALID,22.9428,VALID,49,VALID,0.547266,
2010-10-27, 02:10:04,VALID,1004.07,VALID,0,INVALID,163.739,VALID,23.3306,VALID,22.964,VALID,79,VALID,0.626562,
2010-10-27, 02:11:04,VALID,1004.06,VALID,0,INVALID,163.754,VALID,24.1351,VALID,22.9233,VALID,99,VALID,0.81875,
2010-10-27, 02:12:04,VALID,1004.03,VALID,0,INVALID,163.762,VALID,25.2413,VALID,22.964,VALID,95,VALID,0.794531,
2010-10-27, 02:13:04,VALID,1004.03,VALID,0,INVALID,163.739,VALID,26.2469,VALID,23.0012,VALID,81,VALID,1.63359,
2010-10-27, 02:14:04,VALID,1004.02,VALID,0,INVALID,163.754,VALID,26.9509,VALID,23.0401,VALID,92,VALID,2.30977,
2010-10-27, 02:15:04,VALID,1004.07,VALID,0,INVALID,163.739,VALID,27.7554,VALID,23.0984,VALID,105,VALID,0.961719,
2010-10-27, 02:16:04,VALID,1004.08,VALID,0,INVALID,163.723,VALID,28.8616,VALID,23.1374,VALID,97,VALID,1.475,
2010-10-27, 02:17:04,VALID,1004.15,VALID,0,INVALID,163.746,VALID,30.1689,VALID,23.1975,VALID,88,VALID,0.930469,
2010-10-27, 02:18:04,VALID,1004.15,VALID,0,INVALID,163.708,VALID,31.3756,VALID,23.1957,VALID,40,VALID,0.631641,
2010-10-27, 02:19:04,VALID,1004.21,VALID,0,INVALID,163.716,VALID,30.6717,VALID,23.2152,VALID,36,VALID,0.955078,
2010-10-27, 02:20:04,VALID,1004.22,VALID,0,INVALID,163.716,VALID,32.1801,VALID,23.2541,VALID,32,VALID,0.834375,
2010-10-27, 02:21:04,VALID,1004.25,VALID,0,INVALID,163.701,VALID,35.4987,VALID,23.2754,VALID,14,VALID,0.732813,
2010-10-27, 02:22:04,VALID,1004.24,VALID,0,INVALID,163.731,VALID,36.0015,VALID,23.2754,VALID,23,VALID,1.12734,
2010-10-27, 02:23:04,VALID,1004.28,VALID,0,INVALID,163.731,VALID,35.6998,VALID,23.2948,VALID,91,VALID,1.29961,
2010-10-27, 02:24:04,VALID,1004.26,VALID,0,INVALID,142.309,VALID,34.8953,VALID,23.332,VALID,50,VALID,1.39648,
2010-10-27, 02:25:04,VALID,1004.32,VALID,0,INVALID,136.862,VALID,33.588,VALID,23.4116,VALID,40,VALID,1.07461,
2010-10-27, 02:26:04,VALID,1004.32,VALID,0,INVALID,146.429,VALID,32.1801,VALID,23.4098,VALID,70,VALID,0.451562,
2010-10-27, 02:27:04,VALID,1004.33,VALID,0,INVALID,162.983,VALID,31.8785,VALID,23.4311,VALID,59,VALID,0.705469,
2010-10-27, 02:28:04,VALID,1004.34,VALID,0,INVALID,145.178,VALID,31.8785,VALID,23.4293,VALID,22,VALID,1.2668,
2010-10-27, 02:29:04,VALID,1004.34,VALID,0,INVALID,133.063,VALID,31.4762,VALID,23.4487,VALID,89,VALID,1.5168,
2010-10-27, 02:30:04,VALID,1004.37,VALID,0,INVALID,145.818,VALID,31.4762,VALID,23.4682,VALID,66,VALID,0.319141,
2010-10-27, 02:31:04,VALID,1004.4,VALID,0,INVALID,154.584,VALID,31.3756,VALID,23.4682,VALID,23,VALID,0.228516,
2010-10-27, 02:32:04,VALID,1004.4,VALID,0,INVALID,163.235,VALID,30.8728,VALID,23.4682,VALID,50,VALID,0.742969,
2010-10-27, 02:33:04,VALID,1004.47,VALID,0,INVALID,162.503,VALID,31.1745,VALID,23.4487,VALID,71,VALID,0.604297,
2010-10-27, 02:34:04,VALID,1004.41,VALID,0,INVALID,148.405,VALID,33.2863,VALID,23.4311,VALID,12,VALID,1.36133,
2010-10-27, 02:35:04,VALID,1004.44,VALID,0,INVALID,136.648,VALID,34.4931,VALID,23.4293,VALID,29,VALID,1.77773,
2010-10-27, 02:36:04,VALID,1004.43,VALID,0,INVALID,127.875,VALID,34.6942,VALID,23.4311,VALID,44,VALID,0.792578,
2010-10-27, 02:37:04,VALID,1004.44,VALID,0,INVALID,119.659,VALID,33.7892,VALID,23.4098,VALID,62,VALID,1.33945,
2010-10-27, 02:38:04,VALID,1004.45,VALID,0.5,INVALID,145.101,VALID,31.979,VALID,23.4311,VALID,78,VALID,1.50234,
2010-10-27, 02:39:04,VALID,1004.44,VALID,0,INVALID,160.779,VALID,30.8728,VALID,23.332,VALID,31,VALID,1.07695,
2010-10-27, 02:40:04,VALID,1004.37,VALID,0,VALID,98.7635,VALID,30.4706,VALID,23.3302,VALID,76,VALID,1.75703,
2010-10-27, 02:41:04,VALID,1004.56,VALID,0.5,VALID,89.6241,VALID,28.761,VALID,23.3709,VALID,92,VALID,3.92656,
2010-10-27, 02:42:04,VALID,1004.59,VALID,0.5,VALID,88.701,VALID,27.7554,VALID,23.1957,VALID,95,VALID,1.62969,
2010-10-27, 02:43:04,VALID,1004.61,VALID,0,VALID,84.7645,VALID,27.8559,VALID,23.0595,VALID,79,VALID,1.61563,
2010-10-27, 02:44:04,VALID,1004.62,VALID,0.5,VALID,84.1847,VALID,27.9565,VALID,22.8844,VALID,3,VALID,1.85117,
2010-10-27, 02:45:04,VALID,1004.64,VALID,0.5,VALID,88.1288,VALID,28.761,VALID,22.727,VALID,13,VALID,1.11055,
2010-10-27, 02:46:04,VALID,1004.63,VALID,0,VALID,91.4245,VALID,28.8616,VALID,22.5342,VALID,36,VALID,1.11602,
2010-10-27, 02:47:04,VALID,1004.59,VALID,0,VALID,91.6381,VALID,29.1633,VALID,22.4369,VALID,22,VALID,2.10234,
2010-10-27, 02:48:04,VALID,1004.63,VALID,0,VALID,94.1175,VALID,29.7666,VALID,22.398,VALID,17,VALID,1.70859,
2010-10-27, 02:49:04,VALID,1004.62,VALID,0,VALID,94.1709,VALID,30.37,VALID,22.398,VALID,22,VALID,1.72461,
2010-10-27, 02:50:04,VALID,1004.58,VALID,0,VALID,91.455,VALID,30.6717,VALID,22.4953,VALID,23,VALID,2.71289,
2010-10-27, 02:51:04,VALID,1004.56,VALID,0,VALID,94.7354,VALID,31.0739,VALID,22.612,VALID,14,VALID,2.86211,
2010-10-27, 02:52:04,VALID,1004.57,VALID,0,INVALID,112.099,VALID,31.7779,VALID,22.6898,VALID,39,VALID,1.11055,
2010-10-27, 02:53:04,VALID,1004.57,VALID,0,INVALID,162.907,VALID,32.683,VALID,22.7287,VALID,35,VALID,1.79688,
2010-10-27, 02:54:04,VALID,1004.56,VALID,0.5,INVALID,163.762,VALID,33.2863,VALID,22.826,VALID,19,VALID,1.72266,
2010-10-27, 02:55:04,VALID,1004.54,VALID,0,INVALID,163.762,VALID,34.1914,VALID,22.9605,VALID,27,VALID,1.4125,
2010-10-27, 02:56:04,VALID,1004.52,VALID,0,INVALID,163.754,VALID,34.7948,VALID,23.1002,VALID,16,VALID,2.25781,
2010-10-27, 02:57:04,VALID,1004.48,VALID,0,INVALID,163.723,VALID,35.4987,VALID,23.1957,VALID,27,VALID,1.825,
2010-10-27, 02:58:04,VALID,1004.44,VALID,0,INVALID,163.746,VALID,36.2027,VALID,23.3125,VALID,53,VALID,1.04375,
2010-10-27, 02:59:04,VALID,1004.43,VALID,0,INVALID,163.708,VALID,37.1077,VALID,23.3709,VALID,16,VALID,1.69062,
2010-10-27, 03:00:04,VALID,1004.4,VALID,0,INVALID,163.273,VALID,38.1134,VALID,23.408,VALID,53,VALID,1.82422,
2010-10-27, 03:01:04,VALID,1004.39,VALID,0,INVALID,163.678,VALID,39.0184,VALID,23.4487,VALID,37,VALID,1.10586,
2010-10-27, 03:02:04,VALID,1004.35,VALID,0,INVALID,163.701,VALID,40.2252,VALID,23.4664,VALID,75,VALID,1.01602,
2010-10-27, 03:03:04,VALID,1004.3,VALID,0,INVALID,163.685,VALID,40.9291,VALID,23.4487,VALID,36,VALID,1.0043,
2010-10-27, 03:04:04,VALID,1004.24,VALID,0,INVALID,157.666,VALID,41.9347,VALID,23.4098,VALID,28,VALID,2.48281,
2010-10-27, 03:05:04,VALID,1004.2,VALID,0,INVALID,126.121,VALID,42.8398,VALID,23.4894,VALID,34,VALID,1.19141,
2010-10-27, 03:06:04,VALID,1004.21,VALID,0,VALID,104,VALID,43.5438,VALID,23.5071,VALID,26,VALID,1.26016,
2010-10-27, 03:07:04,VALID,1004.32,VALID,0,VALID,101.426,VALID,44.2477,VALID,23.5266,VALID,93,VALID,1.76758,
2010-10-27, 03:08:04,VALID,1004.32,VALID,0,VALID,100.289,VALID,44.8511,VALID,23.546,VALID,73,VALID,1.68477,
2010-10-27, 03:09:04,VALID,1004.33,VALID,0,VALID,100.228,VALID,45.4545,VALID,23.5478,VALID,76,VALID,1.88203,
2010-10-27, 03:10:04,VALID,1004.32,VALID,0,VALID,101.708,VALID,45.6556,VALID,23.5691,VALID,32,VALID,0.699219,
2010-10-27, 03:11:04,VALID,1004.33,VALID,0,VALID,98.0693,VALID,45.8567,VALID,23.5089,VALID,21,VALID,1.67539,
2010-10-27, 03:12:04,VALID,1004.29,VALID,0,VALID,97.8785,VALID,45.555,VALID,23.5478,VALID,16,VALID,1.28242,
2010-10-27, 03:13:04,VALID,1004.31,VALID,0,VALID,98.9542,VALID,45.3539,VALID,23.5478,VALID,13,VALID,1.27148,
2010-10-27, 03:14:04,VALID,1004.3,VALID,0,VALID,99.1754,VALID,44.9516,VALID,23.5284,VALID,22,VALID,1.34648,
2010-10-27, 03:15:04,VALID,1004.32,VALID,0,VALID,104,VALID,44.6499,VALID,23.4877,VALID,355,VALID,0.743359,
2010-10-27, 03:16:04,VALID,1004.38,VALID,0,INVALID,109.68,VALID,44.4488,VALID,23.47,VALID,38,VALID,1.24258,
2010-10-27, 03:17:04,VALID,1004.39,VALID,0,INVALID,118.553,VALID,44.2477,VALID,23.4894,VALID,75,VALID,1.04648,
2010-10-27, 03:18:04,VALID,1004.41,VALID,0,INVALID,122.886,VALID,44.1471,VALID,23.4877,VALID,32,VALID,0.922656,
2010-10-27, 03:19:04,VALID,1004.42,VALID,0,INVALID,130.637,VALID,44.6499,VALID,23.4877,VALID,35,VALID,1.20859,
2010-10-27, 03:20:04,VALID,1004.4,VALID,0,INVALID,113.205,VALID,44.8511,VALID,23.4877,VALID,27,VALID,1.09102,
2010-10-27, 03:21:04,VALID,1004.42,VALID,0,VALID,104,VALID,45.0522,VALID,23.5655,VALID,23,VALID,0.944531,
2010-10-27, 03:22:04,VALID,1004.4,VALID,0,VALID,99.6561,VALID,45.6556,VALID,23.6044,VALID,50,VALID,0.504687,
2010-10-27, 03:23:04,VALID,1004.42,VALID,0,VALID,99.267,VALID,46.3595,VALID,23.6239,VALID,34,VALID,0.523438,
2010-10-27, 03:24:04,VALID,1004.45,VALID,0,VALID,98.3973,VALID,47.4657,VALID,23.6434,VALID,24,VALID,0.438672,
2010-10-27, 03:25:04,VALID,1004.42,VALID,0,VALID,98.1532,VALID,48.9742,VALID,23.6434,VALID,89,VALID,0.367188,
2010-10-27, 03:26:04,VALID,1004.44,VALID,0,VALID,95.8416,VALID,50.7843,VALID,23.6434,VALID,27,VALID,1.67734,
2010-10-27, 03:27:04,VALID,1004.39,VALID,0,VALID,95.3229,VALID,52.695,VALID,23.6823,VALID,13,VALID,0.808594,
2010-10-27, 03:28:04,VALID,1004.44,VALID,0,VALID,94.1404,VALID,54.5051,VALID,23.7035,VALID,31,VALID,1.73516,
2010-10-27, 03:29:04,VALID,1004.44,VALID,0,VALID,94.7583,VALID,56.8181,VALID,23.7425,VALID,21,VALID,0.865234,
2010-10-27, 03:30:04,VALID,1004.39,VALID,0,VALID,94.3998,VALID,59.4327,VALID,23.7407,VALID,22,VALID,1.4,
2010-10-27, 03:31:04,VALID,1004.38,VALID,0,VALID,94.4227,VALID,61.9468,VALID,23.7814,VALID,59,VALID,0.852734,
2010-10-27, 03:32:04,VALID,1004.41,VALID,0,VALID,95.1627,VALID,64.5614,VALID,23.7796,VALID,67,VALID,0.522266,
2010-10-27, 03:33:04,VALID,1004.37,VALID,0,VALID,94.5981,VALID,67.3772,VALID,23.7991,VALID,59,VALID,0.965625,
2010-10-27, 03:34:04,VALID,1004.36,VALID,0,VALID,94.6668,VALID,70.1929,VALID,23.8398,VALID,49,VALID,0.813281,
2010-10-27, 03:35:04,VALID,1004.38,VALID,0,VALID,94.2472,VALID,73.7126,VALID,23.838,VALID,31,VALID,1.0125,
2010-10-27, 03:36:04,VALID,1004.39,VALID,0,VALID,94.209,VALID,78.238,VALID,23.9159,VALID,28,VALID,0.638672,
2010-10-27, 03:37:04,VALID,1004.4,VALID,0,VALID,94.5371,VALID,84.1712,VALID,23.9159,VALID,14,VALID,0.607813,